Regional Weather Roundup
Issued by NWS

Home | Current Version | Previous Version | Graphics & Text | Print | Product List | Glossary On
Versions: 1 2 3 4 5 6 7 8 9 10 11 12 13 14 15 16 17 18 19 20 21 22 23 24 25 26 27 28 29 30 31 32 33 34 35 36 37 38 39 40 41 42 43 44 45 46 47 48 49 50
000
ASUS44 KMEG 280410
RWRTN
TENNESSEE HOURLY STATE WEATHER ROUNDUP
NATIONAL WEATHER SERVICE MEMPHIS TN
1100 PM CDT FRI MAY 27 2016

TNZ002-004-019-021-049-052-054-088>092-280500-
WEST TENNESSEE

CITY           SKY/WX    TMP DP  RH WIND       PRES   REMARKS
MEMPHIS INTL   CLOUDY    70  65  84 SE8       29.89F
NWS MEMPHIS      N/A     68 N/A N/A MISG        N/A
JACKSON        CLOUDY    76  63  64 S9        29.90F
DYERSBURG      CLOUDY    73  64  73 SW5       29.90S
UNION CITY     CLEAR     73  66  78 S6        29.90R
PARIS          CLEAR     73  63  68 S8        29.92S
LEXINGTON      CLEAR     75  64  69 SE7       29.94S
$$

TNZ008-025-027-028-033-062-065-066-280500-
NORTH MIDDLE TENNESSEE

CITY           SKY/WX    TMP DP  RH WIND       PRES   REMARKS
NASHVILLE      CLOUDY    78  62  57 SE9       30.02R
CLARKSVILLE    CLEAR     74  64  71 S6        29.96S
SMYRNA         CLOUDY    77  64  63 S8        30.03S
COOKEVILLE     CLEAR     73  68  83 S5        30.05S
CROSSVILLE     PTCLDY    70  64  81 S5        30.12R
$$

TNZ061-075-076-078-094-096-097-280500-
SOUTH MIDDLE TENNESSEE

CITY           SKY/WX    TMP DP  RH WIND       PRES   REMARKS
FAYETTEVILLE   CLOUDY    73  68  83 SE6       30.04F
TULLAHOMA      MOCLDY    68  68 100 W3        30.07S
WINCHESTER     CLEAR     72  68  88 S3        30.06S
MCMINNVILLE    CLEAR     73  70  88 SW5       30.06F
COLUMBIA       CLEAR     75  75 100 SE3       29.99S
SHELBYVILLE    MOCLDY    70  64  83 SE6       30.05S
$$

TNZ017-018-042-046-047-280500-
NORTHEAST TENNESSEE

CITY           SKY/WX    TMP DP  RH WIND       PRES   REMARKS
TRI CITIES     PTCLDY    65  64  97 CALM      30.14R FOG
$$

TNZ012-013-036-069-073-074-280500-
CENTRAL EAST TENNESSEE

CITY           SKY/WX    TMP DP  RH WIND       PRES   REMARKS
KNOXVILLE      CLOUDY    68  67  96 CALM      30.09R
OAK RIDGE      CLOUDY    70  67  90 CALM      30.11R
GATLINBURG     CLEAR     66  64  94 CALM      30.09R
$$

TNZ083-085-099-280500-
SOUTHEAST TENNESSEE

CITY           SKY/WX    TMP DP  RH WIND       PRES   REMARKS
CHATTANOOGA    MOCLDY    77  60  55 SE6       30.07S
$$

SKY/WX REPORTED AS FAIR MEANS FEW OR NO CLOUDS BELOW
12 THOUSAND FEET.





USA.gov is the U.S. government's official web portal to all federal, state and local government web resources and services.